Flag for Canada Weather past 2 weeks in Peterborough, Ontario, Canada

Now
43 °F

Clear.


Feels Like: 43 °F
Forecast: 41 / 67 °F
Wind: 2 mph from Southwest

Location: Peterborough Airport

Current Time: Sep 22, 2014 at 10:23:50 PM

Latest Report: Sep 22, 2014 at 10:00 PM


Visibility: 9 mi

Pressure: 30.17 "Hg

Humidity: 93%

Dew point: 41 °F

Location of PeterboroughLocation

Historic Weather in Peterborough — Graph

°F

Peterborough temperature yesterday

Maximum temperature yesterday: 75 °F (at 2:00 PM)
Minimum temperature yesterday: 54 °F (at 9:54 PM)
Average temperature yesterday: 65 °F

Past Weeks' High & Low Weather Summary

 TemperatureHumidityPressure
High75 °F (Sep 21, 2:00 PM)100% (Sep 8, 12:00 AM)30.39 "Hg (Sep 8, 12:00 AM)
Low32 °F (Sep 14, 6:47 AM)33% (Sep 8, 4:00 PM)29.50 "Hg (Sep 21, 1:00 PM)
Average54 °F83%30.06 "Hg
* Reported Sep 7 9:00 PM — Sep 22 9:00 PM, Peterborough, Weather by CustomWeather, © 2014

Note: Actual official high and low records may vary slightly from our data, if they occured in-between our weather recording intervals... More about our weather records

Advertising

Peterborough weather history for previous 24 hours

 ConditionsComfort  
Time TempWeatherWind HumidityBarometerVisibility
9:00 PM
Sep 22
45 °FClear.2 mph87%30.15 "Hg9 mi
8:00 PM48 °FSunny.2 mph76%30.13 "Hg9 mi
7:00 PM50 °FSunny.9 mph67%30.11 "Hg9 mi
6:00 PM52 °FPassing clouds.12 mph67%30.09 "Hg9 mi
5:00 PM54 °FPartly sunny.16 mph63%30.08 "Hg9 mi
4:00 PM54 °FOvercast.16 mph58%30.06 "Hg9 mi
3:00 PM54 °FOvercast.20 mph54%30.05 "Hg9 mi
2:00 PM52 °FPartly sunny.15 mph62%30.05 "Hg9 mi
1:00 PM52 °FOvercast.18 mph62%30.04 "Hg9 mi
12:00 PM52 °FOvercast.16 mph62%30.02 "Hg9 mi
11:00 AM50 °FPartly sunny.13 mph67%30.02 "Hg9 mi
10:00 AM46 °FOvercast.13 mph76%30.01 "Hg9 mi
9:00 AM48 °FPartly sunny.17 mph71%29.97 "Hg9 mi
8:00 AM45 °FPartly sunny.13 mph81%29.95 "Hg9 mi
7:00 AM45 °FOvercast.9 mph81%29.91 "Hg9 mi
6:00 AM45 °FPassing clouds.13 mph81%29.87 "Hg9 mi
5:00 AM48 °FOvercast.15 mph76%29.85 "Hg9 mi
4:00 AM48 °FOvercast.10 mph76%29.81 "Hg9 mi
3:00 AM48 °FOvercast.10 mph82%29.80 "Hg9 mi
2:00 AM48 °FMostly cloudy.12 mph87%29.78 "Hg9 mi
1:02 AM50 °FMostly cloudy.13 mph88%29.75 "Hg9 mi
1:00 AM50 °FLight rain. Overcast.15 mph88%29.74 "Hg9 mi
12:51 AM50 °FLight rain. Mostly cloudy.16 mph82%29.75 "Hg9 mi
12:00 AM52 °FOvercast.14 mph82%29.72 "Hg9 mi
11:00 PM
Sep 21
54 °FMostly cloudy.10 mph82%29.70 "Hg9 mi
10:00 PM54 °FMostly cloudy.12 mph88%29.67 "Hg9 mi
Weather by CustomWeather, © 2014

See weather overviewHow to use our weather pages